Location: Possagno
(45.8500°N, 11.8667°E)
Time: 13:36:40
(UTC+00:00)

Resurs 1-4 Rocket - Pass Details

Date: 07 June 2020
Orbit: 800 x 813 km, 98.6° (Epoch: 15 July)

Event Time Altitude Azimuth Distance (km) Brightness Sun altitude
Rises 01:33:48 0° 8° (N) 3,338 6.6 -14.1°
Reaches altitude 10° 01:36:13 10° 3° (N) 2,404 5.5 -13.9°
Maximum altitude 01:41:16 46° 292° (WNW) 1,086 2.7 -13.4°
Enters shadow 01:44:56 18° 226° (SW) 1,896 3.4 -13.0°
